Location: Peebles
(55.6412°N, 3.1714°W)
Time: 05:52:15
(UTC+00:00)

Cosmos 2184 Rocket - Visible Passes

Search period start: 25 January 2022 00:00
Search period end: 04 February 2022 00:00
Orbit: 959 x 1002 km, 82.9° (Epoch: 24 January)

Date Brightness Start Highest point End Pass type
(mag) Time Alt. Az. Time Alt. Az. Time Alt. Az.
25 Jan 6.3 03:20:54 10° ESE 03:25:07 19° ENE 03:29:19 10° NE visible
25 Jan 4.1 05:03:19 10° S 05:09:40 80° E 05:16:00 10° NNE visible
25 Jan 4.9 06:50:35 10° WSW 06:55:54 27° WNW 07:01:13 10° N visible
25 Jan 6.5 17:38:18 10° NNW 17:42:38 20° WNW 17:46:55 10° WSW visible
26 Jan 5.7 03:46:11 10° SE 03:51:33 30° E 03:56:54 10° NNE visible
26 Jan 3.9 05:30:19 10° SSW 05:36:39 67° WNW 05:42:56 10° N visible
26 Jan 5.3 07:19:10 10° W 07:23:27 18° NW 07:27:44 10° N visible
26 Jan 6.8 18:06:42 10° NW 18:08:55 12° WNW 18:11:07 10° W visible
27 Jan 6.8 02:33:06 10° ENE 02:34:13 10° ENE 02:35:20 10° ENE visible
27 Jan 4.8 04:13:46 18° SSE 04:18:10 47° E 04:24:10 10° NNE visible
27 Jan 4.3 05:58:42 14° SW 06:03:47 43° WNW 06:09:47 10° N visible
28 Jan 6.3 02:57:17 12° ESE 03:00:28 18° ENE 03:04:27 10° NE visible
28 Jan 4.1 04:42:08 35° S 04:44:57 75° E 04:51:15 10° NNE visible
28 Jan 4.8 06:26:59 15° WSW 06:31:07 29° WNW 06:36:30 10° N visible
28 Jan 6.5 17:13:30 10° NNW 17:17:58 21° WNW 17:22:25 10° SW visible
29 Jan 5.7 03:25:06 25° ESE 03:26:53 28° E 03:32:06 10° NNE visible
29 Jan 3.9 05:09:56 45° SW 05:11:54 71° WNW 05:18:13 10° N visible
29 Jan 5.3 06:54:45 12° W 06:58:38 19° NW 07:03:03 10° N visible
29 Jan 6.7 17:41:42 10° NW 17:44:16 13° WNW 17:46:50 10° W visible
30 Jan 4.9 03:52:37 42° ESE 03:53:29 45° E 03:59:24 10° NNE visible
30 Jan 4.2 05:37:26 38° WSW 05:39:02 45° WNW 05:45:04 10° N visible
30 Jan 5.6 07:23:31 10° WNW 07:26:21 13° NW 07:29:11 10° NNW visible
31 Jan 6.3 02:35:09 16° E 02:35:49 17° ENE 02:39:34 10° NE visible
31 Jan 4.1 04:19:58 70° ESE 04:20:14 71° E 04:26:30 10° NNE visible
31 Jan 4.8 06:04:47 27° W 06:06:20 30° WNW 06:11:48 10° N visible
01 Feb 5.7 03:02:23 27° E 03:02:23 27° E 03:07:18 10° NNE visible
01 Feb 3.8 04:47:11 75° WNW 04:47:11 75° WNW 04:53:28 10° N visible
01 Feb 5.2 06:31:59 18° WNW 06:33:50 20° NW 06:38:22 10° N visible
02 Feb 5.1 03:29:32 41° ENE 03:29:32 41° ENE 03:34:37 10° NNE visible
02 Feb 4.2 05:14:20 48° WNW 05:14:20 48° WNW 05:20:20 10° N visible
02 Feb 5.6 06:59:07 11° WNW 07:01:31 14° NW 07:04:34 10° NNW visible
03 Feb 6.4 02:11:49 15° ENE 02:11:49 15° ENE 02:14:40 10° NE visible
03 Feb 4.5 03:56:36 57° NE 03:56:36 57° NE 04:01:45 10° NNE visible
03 Feb 4.7 05:41:24 31° WNW 05:41:33 31° WNW 05:47:04 10° N visible
